owner,sensor,date,latitude,longitude,vertical_datum,wind_speed,wind_to_direction,wind_speed_of_gust,qcFlag 
TCOON,ioos:station:TCOON:068:1,2004-12-01T04:00:00Z,27.2970,-97.4049,0.0,6.0,330.0,99.0,'11111222,11111222,11144222' 
TCOON,ioos:station:TCOON:068:1,2004-12-01T05:00:00Z,27.2970,-97.4049,0.0,4.0,330.0,99.0,'11111222,11111222,11144222' 
TCOON,ioos:station:TCOON:068:1,2004-12-01T06:00:00Z,27.2970,-97.4049,0.0,5.0,330.0,99.0,'11111222,11111222,11144222' 
TCOON,ioos:station:TCOON:068:1,2004-12-01T07:00:00Z,27.2970,-97.4049,0.0,5.0,330.0,99.0,'11111222,11111222,11144222' 
TCOON,ioos:station:TCOON:068:1,2004-12-01T12:00:00Z,27.2970,-97.4049,0.0,4.0,310.0,99.0,'11111222,11111222,11144222' 
TCOON,ioos:station:TCOON:068:1,2004-12-01T13:00:00Z,27.2970,-97.4049,0.0,6.0,300.0,99.0,'11111222,11111222,11144222' 
TCOON,ioos:station:TCOON:068:1,2004-12-01T15:00:00Z,27.2970,-97.4049,0.0,5.0,310.0,99.0,'11111222,11111222,11144222' 
TCOON,ioos:station:TCOON:068:1,2004-12-01T16:00:00Z,27.2970,-97.4049,0.0,5.0,320.0,99.0,'11111222,11111222,11144222' 
TCOON,ioos:station:TCOON:068:1,2004-12-01T17:00:00Z,27.2970,-97.4049,0.0,5.0,320.0,99.0,'11111222,11111222,11144222' 
TCOON,ioos:station:TCOON:068:1,2004-12-01T18:00:00Z,27.2970,-97.4049,0.0,5.0,340.0,99.0,'11111222,11111222,11144222' 
TCOON,ioos:station:TCOON:068:1,2004-12-01T19:00:00Z,27.2970,-97.4049,0.0,6.0,10.0,99.0,'11111222,11111222,11144222' 
TCOON,ioos:station:TCOON:068:1,2004-12-01T20:00:00Z,27.2970,-97.4049,0.0,6.0,360.0,99.0,'11111222,11144222,11144222' 
TCOON,ioos:station:TCOON:068:1,2004-12-01T21:00:00Z,27.2970,-97.4049,0.0,7.0,0.0,99.0,'11111222,11111222,11144222' 
TCOON,ioos:station:TCOON:068:1,2004-12-01T22:00:00Z,27.2970,-97.4049,0.0,7.0,340.0,99.0,'11111222,11111222,11144222' 
TCOON,ioos:station:TCOON:068:1,2004-12-01T23:00:00Z,27.2970,-97.4049,0.0,5.0,0.0,99.0,'11111222,11111222,11144222' 
TCOON,ioos:station:TCOON:068:1,2004-12-02T11:00:00Z,27.2970,-97.4049,0.0,4.0,340.0,99.0,'11111222,11111222,11144222' 
TCOON,ioos:station:TCOON:068:1,2004-12-02T12:00:00Z,27.2970,-97.4049,0.0,5.0,360.0,99.0,'11111222,11144222,11144222' 
TCOON,ioos:station:TCOON:068:1,2004-12-02T13:00:00Z,27.2970,-97.4049,0.0,4.0,10.0,99.0,'11111222,11111222,11144222' 
TCOON,ioos:station:TCOON:068:1,2004-12-02T14:00:00Z,27.2970,-97.4049,0.0,5.0,0.0,99.0,'11111222,11111222,11144222' 
TCOON,ioos:station:TCOON:068:1,2004-12-02T16:00:00Z,27.2970,-97.4049,0.0,7.0,350.0,99.0,'11111222,11111222,11144222' 
TCOON,ioos:station:TCOON:068:1,2004-12-02T17:00:00Z,27.2970,-97.4049,0.0,4.0,10.0,99.0,'11111222,11111222,11144222' 
TCOON,ioos:station:TCOON:068:1,2004-12-02T20:00:00Z,27.2970,-97.4049,0.0,6.0,0.0,99.0,'11111222,11111222,11144222' 
TCOON,ioos:station:TCOON:068:1,2004-12-02T21:00:00Z,27.2970,-97.4049,0.0,7.0,360.0,99.0,'11111222,11144222,11144222' 
TCOON,ioos:station:TCOON:068:1,2004-12-03T01:00:00Z,27.2970,-97.4049,0.0,5.0,340.0,99.0,'11111222,11111222,11144222' 
TCOON,ioos:station:TCOON:068:1,2004-12-03T02:00:00Z,27.2970,-97.4049,0.0,6.0,360.0,99.0,'11111222,11144222,11144222' 
TCOON,ioos:station:TCOON:068:1,2004-12-03T04:00:00Z,27.2970,-97.4049,0.0,5.0,0.0,99.0,'11111222,11111222,11144222' 
TCOON,ioos:station:TCOON:068:1,2004-12-03T05:00:00Z,27.2970,-97.4049,0.0,4.0,0.0,99.0,'11111222,11111222,11144222' 
TCOON,ioos:station:TCOON:068:1,2004-12-03T08:00:00Z,27.2970,-97.4049,0.0,5.0,340.0,99.0,'11111222,11111222,11144222' 
TCOON,ioos:station:TCOON:068:1,2004-12-03T11:00:00Z,27.2970,-97.4049,0.0,8.0,0.0,99.0,'11111222,11111222,11144222' 
TCOON,ioos:station:TCOON:068:1,2004-12-03T14:00:00Z,27.2970,-97.4049,0.0,5.0,10.0,99.0,'11111222,11111222,11144222' 
TCOON,ioos:station:TCOON:068:1,2004-12-03T17:00:00Z,27.2970,-97.4049,0.0,5.0,340.0,99.0,'11111222,11111222,11144222' 
TCOON,ioos:station:TCOON:068:1,2004-12-03T19:00:00Z,27.2970,-97.4049,0.0,7.0,360.0,99.0,'11111222,11144222,11144222' 
TCOON,ioos:station:TCOON:068:1,2004-12-03T20:00:00Z,27.2970,-97.4049,0.0,8.0,330.0,99.0,'11111222,11111222,11144222' 
TCOON,ioos:station:TCOON:068:1,2004-12-03T21:00:00Z,27.2970,-97.4049,0.0,7.0,330.0,99.0,'11111222,11111222,11144222' 
TCOON,ioos:station:TCOON:068:1,2004-12-03T23:00:00Z,27.2970,-97.4049,0.0,8.0,340.0,99.0,'11111222,11111222,11144222' 
TCOON,ioos:station:TCOON:068:1,2004-12-04T01:00:00Z,27.2970,-97.4049,0.0,7.0,340.0,99.0,'11111222,11111222,11144222' 
TCOON,ioos:station:TCOON:068:1,2004-12-04T02:00:00Z,27.2970,-97.4049,0.0,6.0,350.0,99.0,'11111222,11111222,11144222' 
TCOON,ioos:station:TCOON:068:1,2004-12-04T05:00:00Z,27.2970,-97.4049,0.0,6.0,320.0,99.0,'11111222,11111222,11144222' 
TCOON,ioos:station:TCOON:068:1,2004-12-04T08:00:00Z,27.2970,-97.4049,0.0,7.0,320.0,99.0,'11111222,11111222,11144222' 
TCOON,ioos:station:TCOON:068:1,2004-12-04T10:00:00Z,27.2970,-97.4049,0.0,8.0,340.0,99.0,'11111222,11111222,11144222' 
TCOON,ioos:station:TCOON:068:1,2004-12-04T11:00:00Z,27.2970,-97.4049,0.0,7.0,330.0,99.0,'11111222,11111222,11144222' 
TCOON,ioos:station:TCOON:068:1,2004-12-04T14:00:00Z,27.2970,-97.4049,0.0,5.0,340.0,99.0,'11111222,11111222,11144222' 
TCOON,ioos:station:TCOON:068:1,2004-12-04T15:00:00Z,27.2970,-97.4049,0.0,6.0,320.0,99.0,'11111222,11111222,11144222' 
TCOON,ioos:station:TCOON:068:1,2004-12-04T17:00:00Z,27.2970,-97.4049,0.0,6.0,340.0,99.0,'11111222,11111222,11144222' 
TCOON,ioos:station:TCOON:068:1,2004-12-04T20:00:00Z,27.2970,-97.4049,0.0,4.0,360.0,99.0,'11111222,11144222,11144222' 
TCOON,ioos:station:TCOON:068:1,2004-12-04T21:00:00Z,27.2970,-97.4049,0.0,4.0,360.0,99.0,'11111222,11144222,11144222' 
TCOON,ioos:station:TCOON:068:1,2004-12-04T22:00:00Z,27.2970,-97.4049,0.0,5.0,0.0,99.0,'11111222,11111222,11144222' 
TCOON,ioos:station:TCOON:068:1,2004-12-04T23:00:00Z,27.2970,-97.4049,0.0,5.0,360.0,99.0,'11111222,11144222,11144222' 
TCOON,ioos:station:TCOON:068:1,2004-12-05T00:00:00Z,27.2970,-97.4049,0.0,4.0,310.0,99.0,'11111222,11111222,11144222' 
TCOON,ioos:station:TCOON:068:1,2004-12-05T01:00:00Z,27.2970,-97.4049,0.0,3.0,300.0,99.0,'11111222,11111222,11144222' 
TCOON,ioos:station:TCOON:068:1,2004-12-05T02:00:00Z,27.2970,-97.4049,0.0,5.0,280.0,99.0,'11111222,11111222,11144222' 
TCOON,ioos:station:TCOON:068:1,2004-12-05T04:00:00Z,27.2970,-97.4049,0.0,4.0,230.0,99.0,'11111222,11111222,11144222' 
TCOON,ioos:station:TCOON:068:1,2004-12-05T05:00:00Z,27.2970,-97.4049,0.0,3.0,230.0,99.0,'11111222,11111222,11144222' 
TCOON,ioos:station:TCOON:068:1,2004-12-05T07:00:00Z,27.2970,-97.4049,0.0,3.0,190.0,99.0,'11111222,11111222,11144222' 
TCOON,ioos:station:TCOON:068:1,2004-12-05T08:00:00Z,27.2970,-97.4049,0.0,0.0,0.0,99.0,'11111222,11111222,11144222' 
TCOON,ioos:station:TCOON:068:1,2004-12-05T10:00:00Z,27.2970,-97.4049,0.0,0.0,0.0,99.0,'11111222,11111222,11144222' 
TCOON,ioos:station:TCOON:068:1,2004-12-05T11:00:00Z,27.2970,-97.4049,0.0,0.0,0.0,99.0,'11111222,11111222,11144222' 
TCOON,ioos:station:TCOON:068:1,2004-12-05T13:00:00Z,27.2970,-97.4049,0.0,2.0,20.0,99.0,'11111222,11111222,11144222' 
TCOON,ioos:station:TCOON:068:1,2004-12-05T14:00:00Z,27.2970,-97.4049,0.0,1.0,10.0,99.0,'11111222,11111222,11144222' 
TCOON,ioos:station:TCOON:068:1,2004-12-05T20:00:00Z,27.2970,-97.4049,0.0,6.0,130.0,99.0,'11111222,11111222,11144222' 
TCOON,ioos:station:TCOON:068:1,2004-12-05T23:00:00Z,27.2970,-97.4049,0.0,6.0,130.0,99.0,'11111222,11111222,11144222' 
TCOON,ioos:station:TCOON:068:1,2004-12-06T02:00:00Z,27.2970,-97.4049,0.0,5.0,140.0,99.0,'11111222,11111222,11144222' 
TCOON,ioos:station:TCOON:068:1,2004-12-06T05:00:00Z,27.2970,-97.4049,0.0,4.0,140.0,99.0,'11111222,11111222,11144222' 
TCOON,ioos:station:TCOON:068:1,2004-12-06T08:00:00Z,27.2970,-97.4049,0.0,4.0,120.0,99.0,'11111222,11111222,11144222' 
TCOON,ioos:station:TCOON:068:1,2004-12-06T11:00:00Z,27.2970,-97.4049,0.0,3.0,100.0,99.0,'11111222,11111222,11144222' 
TCOON,ioos:station:TCOON:068:1,2004-12-06T14:00:00Z,27.2970,-97.4049,0.0,5.0,120.0,99.0,'11111222,11111222,11144222' 
TCOON,ioos:station:TCOON:068:1,2004-12-06T20:00:00Z,27.2970,-97.4049,0.0,9.0,130.0,99.0,'11111222,11111222,11144222' 
TCOON,ioos:station:TCOON:068:1,2004-12-06T22:00:00Z,27.2970,-97.4049,0.0,8.0,130.0,99.0,'11111222,11111222,11144222' 
TCOON,ioos:station:TCOON:068:1,2004-12-06T23:00:00Z,27.2970,-97.4049,0.0,10.0,130.0,99.0,'11111222,11111222,11144222' 
TCOON,ioos:station:TCOON:068:1,2004-12-07T01:00:00Z,27.2970,-97.4049,0.0,4.0,160.0,99.0,'11111222,11111222,11144222' 
TCOON,ioos:station:TCOON:068:1,2004-12-07T02:00:00Z,27.2970,-97.4049,0.0,4.0,130.0,99.0,'11111222,11111222,11144222' 
TCOON,ioos:station:TCOON:068:1,2004-12-07T05:00:00Z,27.2970,-97.4049,0.0,4.0,140.0,99.0,'11111222,11111222,11144222' 
TCOON,ioos:station:TCOON:068:1,2004-12-07T08:00:00Z,27.2970,-97.4049,0.0,4.0,340.0,99.0,'11111222,11111222,11144222' 
TCOON,ioos:station:TCOON:068:1,2004-12-07T11:00:00Z,27.2970,-97.4049,0.0,6.0,20.0,99.0,'11111222,11111222,11144222' 
TCOON,ioos:station:TCOON:068:1,2004-12-08T14:00:00Z,27.2970,-97.4049,0.0,3.0,330.0,99.0,'11111222,11111222,11144222' 
TCOON,ioos:station:TCOON:068:1,2004-12-08T22:00:00Z,27.2970,-97.4049,0.0,3.0,110.0,99.0,'11111222,11111222,11144222' 
TCOON,ioos:station:TCOON:068:1,2004-12-08T23:00:00Z,27.2970,-97.4049,0.0,4.0,120.0,99.0,'11111222,11111222,11144222' 
TCOON,ioos:station:TCOON:068:1,2004-12-09T02:00:00Z,27.2970,-97.4049,0.0,3.0,170.0,99.0,'11111222,11111222,11144222' 
TCOON,ioos:station:TCOON:068:1,2004-12-09T08:00:00Z,27.2970,-97.4049,0.0,2.0,300.0,99.0,'11111222,11111222,11144222' 
TCOON,ioos:station:TCOON:068:1,2004-12-09T12:00:00Z,27.2970,-97.4049,0.0,3.0,300.0,99.0,'11111222,11111222,11144222' 
TCOON,ioos:station:TCOON:068:1,2004-12-09T13:00:00Z,27.2970,-97.4049,0.0,2.0,300.0,99.0,'11111222,11111222,11144222' 
TCOON,ioos:station:TCOON:068:1,2004-12-09T14:00:00Z,27.2970,-97.4049,0.0,2.0,290.0,99.0,'11111222,11111222,11144222' 
TCOON,ioos:station:TCOON:068:1,2004-12-09T20:00:00Z,27.2970,-97.4049,0.0,2.0,120.0,99.0,'11111222,11111222,11144222' 
TCOON,ioos:station:TCOON:068:1,2004-12-10T02:00:00Z,27.2970,-97.4049,0.0,5.0,150.0,99.0,'11111222,11111222,11144222' 
TCOON,ioos:station:TCOON:068:1,2004-12-10T05:00:00Z,27.2970,-97.4049,0.0,2.0,230.0,99.0,'11111222,11111222,11144222' 
TCOON,ioos:station:TCOON:068:1,2004-12-11T20:00:00Z,27.2970,-97.4049,0.0,0.0,0.0,99.0,'11111222,11111222,11144222' 
TCOON,ioos:station:TCOON:068:1,2004-12-12T08:00:00Z,27.2970,-97.4049,0.0,8.0,170.0,99.0,'11111222,11111222,11144222' 
TCOON,ioos:station:TCOON:068:1,2004-12-12T20:00:00Z,27.2970,-97.4049,0.0,6.0,130.0,99.0,'11111222,11111222,11144222' 
TCOON,ioos:station:TCOON:068:1,2004-12-13T08:00:00Z,27.2970,-97.4049,0.0,3.0,140.0,99.0,'11111222,11111222,11144222' 
TCOON,ioos:station:TCOON:068:1,2004-12-13T20:00:00Z,27.2970,-97.4049,0.0,10.0,330.0,99.0,'11111222,11111222,11144222' 
TCOON,ioos:station:TCOON:068:1,2004-12-14T07:00:00Z,27.2970,-97.4049,0.0,11.0,340.0,99.0,'11111222,11111222,11144222' 
TCOON,ioos:station:TCOON:068:1,2004-12-14T08:00:00Z,27.2970,-97.4049,0.0,9.0,330.0,99.0,'11111222,11111222,11144222' 
TCOON,ioos:station:TCOON:068:1,2004-12-14T11:00:00Z,27.2970,-97.4049,0.0,7.0,320.0,99.0,'11111222,11111222,11144222' 
TCOON,ioos:station:TCOON:068:1,2004-12-14T14:00:00Z,27.2970,-97.4049,0.0,7.0,300.0,99.0,'11111222,11111222,11144222' 
TCOON,ioos:station:TCOON:068:1,2004-12-14T16:00:00Z,27.2970,-97.4049,0.0,9.0,340.0,99.0,'11111222,11111222,11144222' 
TCOON,ioos:station:TCOON:068:1,2004-12-14T17:00:00Z,27.2970,-97.4049,0.0,7.0,360.0,99.0,'11111222,11144222,11144222' 
TCOON,ioos:station:TCOON:068:1,2004-12-14T20:00:00Z,27.2970,-97.4049,0.0,7.0,20.0,99.0,'11111222,11111222,11144222' 
TCOON,ioos:station:TCOON:068:1,2004-12-14T23:00:00Z,27.2970,-97.4049,0.0,7.0,10.0,99.0,'11111222,11111222,11144222' 
TCOON,ioos:station:TCOON:068:1,2004-12-15T08:00:00Z,27.2970,-97.4049,0.0,5.0,320.0,99.0,'11111222,11111222,11144222' 
TCOON,ioos:station:TCOON:068:1,2004-12-15T11:00:00Z,27.2970,-97.4049,0.0,5.0,340.0,99.0,'11111222,11111222,11144222' 
TCOON,ioos:station:TCOON:068:1,2004-12-15T13:00:00Z,27.2970,-97.4049,0.0,6.0,340.0,99.0,'11111222,11111222,11144222' 
TCOON,ioos:station:TCOON:068:1,2004-12-15T14:00:00Z,27.2970,-97.4049,0.0,5.0,330.0,99.0,'11111222,11111222,11144222' 
TCOON,ioos:station:TCOON:068:1,2004-12-15T17:00:00Z,27.2970,-97.4049,0.0,6.0,350.0,99.0,'11111222,11111222,11144222' 
TCOON,ioos:station:TCOON:068:1,2004-12-15T20:00:00Z,27.2970,-97.4049,0.0,4.0,350.0,99.0,'11111222,11111222,11144222' 
TCOON,ioos:station:TCOON:068:1,2004-12-16T02:00:00Z,27.2970,-97.4049,0.0,1.0,310.0,99.0,'11111222,11111222,11144222' 
TCOON,ioos:station:TCOON:068:1,2004-12-16T05:00:00Z,27.2970,-97.4049,0.0,0.0,0.0,99.0,'11111222,11111222,11144222' 
TCOON,ioos:station:TCOON:068:1,2004-12-16T10:00:00Z,27.2970,-97.4049,0.0,3.0,360.0,99.0,'11111222,11144222,11144222' 
TCOON,ioos:station:TCOON:068:1,2004-12-16T11:00:00Z,27.2970,-97.4049,0.0,4.0,360.0,99.0,'11111222,11144222,11144222' 
TCOON,ioos:station:TCOON:068:1,2004-12-16T14:00:00Z,27.2970,-97.4049,0.0,7.0,360.0,99.0,'11111222,11144222,11144222' 
TCOON,ioos:station:TCOON:068:1,2004-12-16T17:00:00Z,27.2970,-97.4049,0.0,7.0,340.0,99.0,'11111222,11111222,11144222' 
TCOON,ioos:station:TCOON:068:1,2004-12-16T20:00:00Z,27.2970,-97.4049,0.0,7.0,0.0,99.0,'11111222,11111222,11144222' 
TCOON,ioos:station:TCOON:068:1,2004-12-16T22:00:00Z,27.2970,-97.4049,0.0,6.0,10.0,99.0,'11111222,11111222,11144222' 
TCOON,ioos:station:TCOON:068:1,2004-12-16T23:00:00Z,27.2970,-97.4049,0.0,8.0,0.0,99.0,'11111222,11111222,11144222' 
TCOON,ioos:station:TCOON:068:1,2004-12-17T02:00:00Z,27.2970,-97.4049,0.0,9.0,360.0,99.0,'11111222,11144222,11144222' 
TCOON,ioos:station:TCOON:068:1,2004-12-17T05:00:00Z,27.2970,-97.4049,0.0,9.0,0.0,99.0,'11111222,11111222,11144222' 
TCOON,ioos:station:TCOON:068:1,2004-12-17T08:00:00Z,27.2970,-97.4049,0.0,7.0,350.0,99.0,'11111222,11111222,11144222' 
TCOON,ioos:station:TCOON:068:1,2004-12-17T14:00:00Z,27.2970,-97.4049,0.0,6.0,320.0,99.0,'11111222,11111222,11144222' 
TCOON,ioos:station:TCOON:068:1,2004-12-17T20:00:00Z,27.2970,-97.4049,0.0,5.0,20.0,99.0,'11111222,11111222,11144222' 
TCOON,ioos:station:TCOON:068:1,2004-12-17T22:00:00Z,27.2970,-97.4049,0.0,3.0,20.0,99.0,'11111222,11111222,11144222' 
TCOON,ioos:station:TCOON:068:1,2004-12-17T23:00:00Z,27.2970,-97.4049,0.0,3.0,50.0,99.0,'11111222,11111222,11144222' 
TCOON,ioos:station:TCOON:068:1,2004-12-18T01:00:00Z,27.2970,-97.4049,0.0,4.0,30.0,99.0,'11111222,11111222,11144222' 
TCOON,ioos:station:TCOON:068:1,2004-12-18T02:00:00Z,27.2970,-97.4049,0.0,4.0,30.0,99.0,'11111222,11111222,11144222' 
TCOON,ioos:station:TCOON:068:1,2004-12-18T08:00:00Z,27.2970,-97.4049,0.0,4.0,300.0,99.0,'11111222,11111222,11144222' 
TCOON,ioos:station:TCOON:068:1,2004-12-18T11:00:00Z,27.2970,-97.4049,0.0,5.0,300.0,99.0,'11111222,11111222,11144222' 
TCOON,ioos:station:TCOON:068:1,2004-12-18T14:00:00Z,27.2970,-97.4049,0.0,5.0,310.0,99.0,'11111222,11111222,11144222' 
TCOON,ioos:station:TCOON:068:1,2004-12-18T17:00:00Z,27.2970,-97.4049,0.0,3.0,330.0,99.0,'11111222,11111222,11144222' 
TCOON,ioos:station:TCOON:068:1,2004-12-18T20:00:00Z,27.2970,-97.4049,0.0,1.0,250.0,99.0,'11111222,11111222,11144222' 
TCOON,ioos:station:TCOON:068:1,2004-12-18T23:00:00Z,27.2970,-97.4049,0.0,2.0,220.0,99.0,'11111222,11111222,11144222' 
TCOON,ioos:station:TCOON:068:1,2004-12-19T05:00:00Z,27.2970,-97.4049,0.0,4.0,250.0,99.0,'11111222,11111222,11144222' 
TCOON,ioos:station:TCOON:068:1,2004-12-19T08:00:00Z,27.2970,-97.4049,0.0,5.0,300.0,99.0,'11111222,11111222,11144222' 
TCOON,ioos:station:TCOON:068:1,2004-12-19T14:00:00Z,27.2970,-97.4049,0.0,6.0,310.0,99.0,'11111222,11111222,11144222' 
TCOON,ioos:station:TCOON:068:1,2004-12-19T17:00:00Z,27.2970,-97.4049,0.0,0.0,0.0,99.0,'11111222,11111222,11144222' 
TCOON,ioos:station:TCOON:068:1,2004-12-19T20:00:00Z,27.2970,-97.4049,0.0,6.0,0.0,99.0,'11111222,11111222,11144222' 
TCOON,ioos:station:TCOON:068:1,2004-12-19T23:00:00Z,27.2970,-97.4049,0.0,4.0,50.0,99.0,'11111222,11111222,11144222' 
TCOON,ioos:station:TCOON:068:1,2004-12-20T02:00:00Z,27.2970,-97.4049,0.0,1.0,70.0,99.0,'11111222,11111222,11144222' 
TCOON,ioos:station:TCOON:068:1,2004-12-20T05:00:00Z,27.2970,-97.4049,0.0,0.0,0.0,99.0,'11111222,11111222,11144222' 
TCOON,ioos:station:TCOON:068:1,2004-12-20T14:00:00Z,27.2970,-97.4049,0.0,5.0,180.0,99.0,'11111222,11111222,11144222' 
TCOON,ioos:station:TCOON:068:1,2004-12-20T16:00:00Z,27.2970,-97.4049,0.0,3.0,150.0,99.0,'11111222,11111222,11144222' 
TCOON,ioos:station:TCOON:068:1,2004-12-20T17:00:00Z,27.2970,-97.4049,0.0,4.0,160.0,99.0,'11111222,11111222,11144222' 
TCOON,ioos:station:TCOON:068:1,2004-12-20T20:00:00Z,27.2970,-97.4049,0.0,9.0,140.0,99.0,'11111222,11111222,11144222' 
TCOON,ioos:station:TCOON:068:1,2004-12-21T05:00:00Z,27.2970,-97.4049,0.0,5.0,150.0,99.0,'11111222,11111222,11144222' 
TCOON,ioos:station:TCOON:068:1,2004-12-21T11:00:00Z,27.2970,-97.4049,0.0,5.0,140.0,99.0,'11111222,11111222,11144222' 
TCOON,ioos:station:TCOON:068:1,2004-12-21T14:00:00Z,27.2970,-97.4049,0.0,5.0,150.0,99.0,'11111222,11111222,11144222' 
TCOON,ioos:station:TCOON:068:1,2004-12-21T17:00:00Z,27.2970,-97.4049,0.0,5.0,150.0,99.0,'11111222,11111222,11144222' 
TCOON,ioos:station:TCOON:068:1,2004-12-21T18:00:00Z,27.2970,-97.4049,0.0,5.0,130.0,99.0,'11111222,11111222,11144222' 
TCOON,ioos:station:TCOON:068:1,2004-12-21T20:00:00Z,27.2970,-97.4049,0.0,7.0,130.0,99.0,'11111222,11111222,11144222' 
TCOON,ioos:station:TCOON:068:1,2004-12-21T21:00:00Z,27.2970,-97.4049,0.0,9.0,130.0,99.0,'11111222,11111222,11144222' 
TCOON,ioos:station:TCOON:068:1,2004-12-21T22:00:00Z,27.2970,-97.4049,0.0,9.0,130.0,99.0,'11111222,11111222,11144222' 
TCOON,ioos:station:TCOON:068:1,2004-12-21T23:00:00Z,27.2970,-97.4049,0.0,8.0,130.0,99.0,'11111222,11111222,11144222' 
TCOON,ioos:station:TCOON:068:1,2004-12-22T00:00:00Z,27.2970,-97.4049,0.0,8.0,130.0,99.0,'11111222,11111222,11144222' 
TCOON,ioos:station:TCOON:068:1,2004-12-22T01:00:00Z,27.2970,-97.4049,0.0,8.0,140.0,99.0,'11111222,11111222,11144222' 
TCOON,ioos:station:TCOON:068:1,2004-12-22T02:00:00Z,27.2970,-97.4049,0.0,7.0,140.0,99.0,'11111222,11111222,11144222' 
TCOON,ioos:station:TCOON:068:1,2004-12-22T05:00:00Z,27.2970,-97.4049,0.0,4.0,150.0,99.0,'11111222,11111222,11144222' 
TCOON,ioos:station:TCOON:068:1,2004-12-22T08:00:00Z,27.2970,-97.4049,0.0,3.0,120.0,99.0,'11111222,11111222,11144222' 
TCOON,ioos:station:TCOON:068:1,2004-12-22T10:00:00Z,27.2970,-97.4049,0.0,4.0,120.0,99.0,'11111222,11111222,11144222' 
TCOON,ioos:station:TCOON:068:1,2004-12-22T11:00:00Z,27.2970,-97.4049,0.0,3.0,100.0,99.0,'11111222,11111222,11144222' 
TCOON,ioos:station:TCOON:068:1,2004-12-22T13:00:00Z,27.2970,-97.4049,0.0,3.0,150.0,99.0,'11111222,11111222,11144222' 
TCOON,ioos:station:TCOON:068:1,2004-12-22T14:00:00Z,27.2970,-97.4049,0.0,2.0,140.0,99.0,'11111222,11111222,11144222' 
TCOON,ioos:station:TCOON:068:1,2004-12-22T18:00:00Z,27.2970,-97.4049,0.0,12.0,310.0,99.0,'11111222,11111222,11144222' 
TCOON,ioos:station:TCOON:068:1,2004-12-22T20:00:00Z,27.2970,-97.4049,0.0,11.0,320.0,99.0,'11111222,11111222,11144222' 
TCOON,ioos:station:TCOON:068:1,2004-12-22T21:00:00Z,27.2970,-97.4049,0.0,10.0,330.0,99.0,'11111222,11111222,11144222' 
TCOON,ioos:station:TCOON:068:1,2004-12-22T22:00:00Z,27.2970,-97.4049,0.0,10.0,320.0,99.0,'11111222,11111222,11144222' 
TCOON,ioos:station:TCOON:068:1,2004-12-22T23:00:00Z,27.2970,-97.4049,0.0,11.0,340.0,99.0,'11111222,11111222,11144222' 
TCOON,ioos:station:TCOON:068:1,2004-12-23T03:00:00Z,27.2970,-97.4049,0.0,10.0,320.0,99.0,'11111222,11111222,11144222' 
TCOON,ioos:station:TCOON:068:1,2004-12-23T04:00:00Z,27.2970,-97.4049,0.0,10.0,320.0,99.0,'11111222,11111222,11144222' 
TCOON,ioos:station:TCOON:068:1,2004-12-23T05:00:00Z,27.2970,-97.4049,0.0,8.0,310.0,99.0,'11111222,11111222,11144222' 
TCOON,ioos:station:TCOON:068:1,2004-12-23T06:00:00Z,27.2970,-97.4049,0.0,8.0,310.0,99.0,'11111222,11111222,11144222' 
TCOON,ioos:station:TCOON:068:1,2004-12-23T07:00:00Z,27.2970,-97.4049,0.0,8.0,310.0,99.0,'11111222,11111222,11144222' 
TCOON,ioos:station:TCOON:068:1,2004-12-23T08:00:00Z,27.2970,-97.4049,0.0,6.0,310.0,99.0,'11111222,11111222,11144222' 
TCOON,ioos:station:TCOON:068:1,2004-12-23T11:00:00Z,27.2970,-97.4049,0.0,7.0,320.0,99.0,'11111222,11111222,11144222' 
TCOON,ioos:station:TCOON:068:1,2004-12-23T21:00:00Z,27.2970,-97.4049,0.0,5.0,0.0,99.0,'11111222,11111222,11144222' 
TCOON,ioos:station:TCOON:068:1,2004-12-24T02:00:00Z,27.2970,-97.4049,0.0,7.0,330.0,99.0,'11111222,11111222,11144222' 
TCOON,ioos:station:TCOON:068:1,2004-12-24T05:00:00Z,27.2970,-97.4049,0.0,12.0,0.0,99.0,'11111222,11111222,11144222' 
TCOON,ioos:station:TCOON:068:1,2004-12-24T06:00:00Z,27.2970,-97.4049,0.0,12.0,0.0,99.0,'11111222,11111222,11144222' 
TCOON,ioos:station:TCOON:068:1,2004-12-24T11:00:00Z,27.2970,-97.4049,0.0,11.0,340.0,99.0,'11111222,11111222,11144222' 
TCOON,ioos:station:TCOON:068:1,2004-12-24T12:00:00Z,27.2970,-97.4049,0.0,12.0,340.0,99.0,'11111222,11111222,11144222' 
TCOON,ioos:station:TCOON:068:1,2004-12-24T13:00:00Z,27.2970,-97.4049,0.0,12.0,340.0,99.0,'11111222,11111222,11144222' 
TCOON,ioos:station:TCOON:068:1,2004-12-24T14:00:00Z,27.2970,-97.4049,0.0,9.0,320.0,99.0,'11111222,11111222,11144222' 
TCOON,ioos:station:TCOON:068:1,2004-12-25T07:00:00Z,27.2970,-97.4049,0.0,8.0,290.0,99.0,'11111222,11111222,11144222' 
TCOON,ioos:station:TCOON:068:1,2004-12-25T08:00:00Z,27.2970,-97.4049,0.0,8.0,300.0,99.0,'11111222,11111222,11144222' 
TCOON,ioos:station:TCOON:068:1,2004-12-25T09:00:00Z,27.2970,-97.4049,0.0,8.0,300.0,99.0,'11111222,11111222,11144222' 
TCOON,ioos:station:TCOON:068:1,2004-12-25T10:00:00Z,27.2970,-97.4049,0.0,5.0,310.0,99.0,'11111222,11111222,11144222' 
TCOON,ioos:station:TCOON:068:1,2004-12-25T20:00:00Z,27.2970,-97.4049,0.0,4.0,320.0,99.0,'11111222,11111222,11144222' 
TCOON,ioos:station:TCOON:068:1,2004-12-25T22:00:00Z,27.2970,-97.4049,0.0,3.0,270.0,99.0,'11111222,11111222,11144222' 
TCOON,ioos:station:TCOON:068:1,2004-12-25T23:00:00Z,27.2970,-97.4049,0.0,3.0,280.0,99.0,'11111222,11111222,11144222' 
TCOON,ioos:station:TCOON:068:1,2004-12-26T03:00:00Z,27.2970,-97.4049,0.0,1.0,60.0,99.0,'11111222,11111222,11144222' 
TCOON,ioos:station:TCOON:068:1,2004-12-26T04:00:00Z,27.2970,-97.4049,0.0,0.0,0.0,99.0,'11111222,11111222,11144222' 
TCOON,ioos:station:TCOON:068:1,2004-12-26T05:00:00Z,27.2970,-97.4049,0.0,0.0,0.0,99.0,'11111222,11111222,11144222' 
TCOON,ioos:station:TCOON:068:1,2004-12-26T06:00:00Z,27.2970,-97.4049,0.0,2.0,280.0,99.0,'11111222,11111222,11144222' 
TCOON,ioos:station:TCOON:068:1,2004-12-26T16:00:00Z,27.2970,-97.4049,0.0,2.0,240.0,99.0,'11111222,11111222,11144222' 
TCOON,ioos:station:TCOON:068:1,2004-12-26T17:00:00Z,27.2970,-97.4049,0.0,0.0,0.0,99.0,'11111222,11111222,11144222' 
TCOON,ioos:station:TCOON:068:1,2004-12-26T18:00:00Z,27.2970,-97.4049,0.0,0.0,0.0,99.0,'11111222,11111222,11144222' 
TCOON,ioos:station:TCOON:068:1,2004-12-27T08:00:00Z,27.2970,-97.4049,0.0,2.0,10.0,99.0,'11111222,11111222,11144222' 
TCOON,ioos:station:TCOON:068:1,2004-12-27T09:00:00Z,27.2970,-97.4049,0.0,2.0,0.0,99.0,'11111222,11111222,11144222' 
TCOON,ioos:station:TCOON:068:1,2004-12-27T11:00:00Z,27.2970,-97.4049,0.0,2.0,340.0,99.0,'11111222,11111222,11144222' 
TCOON,ioos:station:TCOON:068:1,2004-12-27T12:00:00Z,27.2970,-97.4049,0.0,0.0,0.0,99.0,'11111222,11111222,11144222' 
TCOON,ioos:station:TCOON:068:1,2004-12-27T13:00:00Z,27.2970,-97.4049,0.0,2.0,330.0,99.0,'11111222,11111222,11144222' 
TCOON,ioos:station:TCOON:068:1,2004-12-27T14:00:00Z,27.2970,-97.4049,0.0,2.0,320.0,99.0,'11111222,11111222,11144222' 
TCOON,ioos:station:TCOON:068:1,2004-12-27T15:00:00Z,27.2970,-97.4049,0.0,3.0,360.0,99.0,'11111222,11144222,11144222' 
TCOON,ioos:station:TCOON:068:1,2004-12-27T20:00:00Z,27.2970,-97.4049,0.0,1.0,300.0,99.0,'11111222,11111222,11144222' 
TCOON,ioos:station:TCOON:068:1,2004-12-27T21:00:00Z,27.2970,-97.4049,0.0,0.0,0.0,99.0,'11111222,11111222,11144222' 
TCOON,ioos:station:TCOON:068:1,2004-12-27T22:00:00Z,27.2970,-97.4049,0.0,5.0,10.0,99.0,'11111222,11111222,11144222' 
TCOON,ioos:station:TCOON:068:1,2004-12-27T23:00:00Z,27.2970,-97.4049,0.0,4.0,20.0,99.0,'11111222,11111222,11144222' 